Tracking 35274 objects as of 10-Sep-2026
HD Live streaming from Space Station
objects crossing your sky now

BOTAN


BOTAN is no longer on orbit
BOTAN is classified as:


NORAD ID: 65943
Int'l Code: 1998-067XQ
Launch date: November 20, 1998
Source: International Space Station (ISS)
Launch site: TYURATAM MISSILE AND SPACE COMPLEX (TTMTR)
Decay date: 2026-04-19

Uplink (MHz):
Downlink (MHz): 145.840
Beacon (MHz): 145.840
Mode: 1k2AFSK 9K6GMSK CW
Call sign: JL3ZPN
Status: Inactive


Uplink (MHz):
Downlink (MHz): 145.840
Beacon (MHz): 145.840
Mode: 1k2AFSK 9K6GMSK CW
Call sign: JL3ZPN
Status: Inactive

Your satellite tracking list
Your tracking list is empty




NASA's NSSDC Master Catalog

Two Line Element Set (TLE):
1 65943U 98067XQ  26108.50080101  .04905991  12189-4  10064-2 0  9994
2 65943  51.6087 206.4857 0010568 326.5110  33.5243 16.30209286 29857
Source of the keplerian elements: AFSPC